Location: *
(28.2408°N, 53.4600°E)
Time: 09:24:54
(UTC+00:00)

H-2A R/B - Pass Details

Date: 22 September 2019
Orbit: 734 x 836 km, 98.3° (Epoch: 19 October)

Event Time Altitude Azimuth Distance (km) Brightness Sun altitude
Exits shadow 16:59:46 27° 331° (NNW) 1,421 3.7 -34.5°
Drops below altitude 10° 17:02:02 10° 340° (NNW) 2,273 4.9 -35.0°
Sets 17:04:23 0° 344° (NNW) 3,214 5.7 -35.5°
